| time (UTC) | temp C | wind direction | speed KPH | gust KPH | rain 1hr cm | rain 24hr cm | rain mn cm | humidity % | barometer mb |
| 20260508154539 | 15 | 222 | 1.6 | 8.0 | 0.00 | 0.00 | 0.00 | 57 | 1012.5 |
| 20260508153519 | 15 | 169 | 3.2 | 9.7 | 0.00 | 0.00 | 0.00 | 57 | 1012.6 |
| 20260508152519 | 14 | 224 | 3.2 | 6.4 | 0.00 | 0.00 | 0.00 | 56 | 1012.7 |
| 20260508151516 | 14 | 98 | 1.6 | 6.4 | 0.00 | 0.00 | 0.00 | 58 | 1012.8 |
| 20260508150519 | 13 | 217 | 3.2 | 11.3 | 0.00 | 0.00 | 0.00 | 60 | 1012.9 |
| 20260508145519 | 13 | 201 | 3.2 | 6.4 | 0.00 | 0.00 | 0.00 | 61 | 1013.1 |
| 20260508144519 | 12 | 205 | 1.6 | 4.8 | 0.00 | 0.00 | 0.00 | 63 | 1013.1 |
| 20260508143516 | 12 | 189 | 1.6 | 4.8 | 0.00 | 0.00 | 0.00 | 63 | 1013.1 |
| 20260508142520 | 12 | 211 | 1.6 | 4.8 | 0.00 | 0.00 | 0.00 | 63 | 1013.2 |
| 20260508141520 | 12 | 219 | 3.2 | 8.0 | 0.00 | 0.00 | 0.00 | 61 | 1013.2 |
| 20260508140520 | 12 | 232 | 3.2 | 8.0 | 0.00 | 0.00 | 0.00 | 61 | 1013.2 |
| 20260508135520 | 12 | 216 | 1.6 | 4.8 | 0.00 | 0.00 | 0.00 | 61 | 1013.1 |
| 20260508134517 | 12 | 212 | 3.2 | 8.0 | 0.00 | 0.00 | 0.00 | 61 | 1013.1 |
| 20260508133537 | 12 | 211 | 1.6 | 6.4 | 0.00 | 0.00 | 0.00 | 62 | 1013.2 |
| 20260508132540 | 12 | 210 | 3.2 | 8.0 | 0.00 | 0.00 | 0.00 | 61 | 1013.1 |
| 20260508131520 | 12 | 220 | 4.8 | 12.9 | 0.00 | 0.00 | 0.00 | 61 | 1012.9 |
| 20260508130517 | 12 | 204 | 3.2 | 11.3 | 0.00 | 0.00 | 0.00 | 61 | 1012.9 |
| 20260508125517 | 11 | 219 | 3.2 | 6.4 | 0.00 | 0.00 | 0.00 | 63 | 1012.9 |
| 20260508124517 | 11 | 212 | 3.2 | 9.7 | 0.00 | 0.00 | 0.00 | 64 | 1013.0 |
| 20260508123538 | 10 | 184 | 1.6 | 4.8 | 0.00 | 0.00 | 0.00 | 66 | 1012.9 |
| 20260508122521 | 10 | 196 | 3.2 | 6.4 | 0.00 | 0.00 | 0.00 | 66 | 1012.7 |
| 20260508121518 | 10 | 193 | 3.2 | 6.4 | 0.00 | 0.00 | 0.00 | 66 | 1012.8 |
| 20260508120518 | 10 | 183 | 1.6 | 4.8 | 0.00 | 0.00 | 0.00 | 68 | 1012.9 |
| 20260508115518 | 10 | 189 | 1.6 | 6.4 | 0.00 | 0.00 | 0.00 | 67 | 1012.9 |
| 20260508114518 | 9 | 214 | 3.2 | 9.7 | 0.00 | 0.00 | 0.00 | 68 | 1012.7 |
| 20260508113518 | 8 | 190 | 1.6 | 6.4 | 0.00 | 0.00 | 0.00 | 70 | 1012.7 |
| 20260508112518 | 8 | 223 | 1.6 | 4.8 | 0.00 | 0.00 | 0.00 | 71 | 1012.6 |
| 20260508111524 | 7 | 190 | 1.6 | 6.4 | 0.00 | 0.00 | 0.00 | 73 | 1012.8 |
| 20260508110518 | 7 | 172 | 1.6 | 6.4 | 0.00 | 0.00 | 0.00 | 74 | 1012.8 |
| 20260508105548 | 7 | 159 | 1.6 | 3.2 | 0.00 | 0.00 | 0.00 | 73 | 1012.8 |
| 20260508104519 | 7 | 191 | 1.6 | 6.4 | 0.00 | 0.00 | 0.00 | 73 | 1012.6 |
| 20260508103516 | 7 | 174 | 1.6 | 3.2 | 0.00 | 0.00 | 0.00 | 74 | 1012.6 |
| 20260508102519 | 7 | 180 | 1.6 | 6.4 | 0.00 | 0.00 | 0.00 | 75 | 1012.5 |
| 20260508101539 | 7 | 189 | 1.6 | 4.8 | 0.00 | 0.00 | 0.00 | 76 | 1012.5 |
| 20260508100519 | 7 | 186 | 1.6 | 6.4 | 0.00 | 0.00 | 0.00 | 75 | 1012.4 |
| 20260508095520 | 7 | 186 | 1.6 | 4.8 | 0.00 | 0.00 | 0.00 | 75 | 1012.4 |
| 20260508094517 | 7 | 181 | 1.6 | 4.8 | 0.00 | 0.00 | 0.00 | 74 | 1012.5 |
| 20260508093517 | 7 | 166 | 1.6 | 4.8 | 0.00 | 0.00 | 0.00 | 75 | 1012.5 |
| 20260508092520 | 7 | 153 | 1.6 | 3.2 | 0.00 | 0.00 | 0.00 | 75 | 1012.5 |
| 20260508091541 | 7 | 169 | 1.6 | 3.2 | 0.00 | 0.00 | 0.00 | 75 | 1012.6 |
| 20260508090517 | 7 | 153 | 1.6 | 3.2 | 0.00 | 0.00 | 0.00 | 76 | 1012.7 |
| 20260508085517 | 6 | 165 | 1.6 | 1.6 | 0.00 | 0.00 | 0.00 | 78 | 1012.7 |
| 20260508084517 | 6 | 194 | 1.6 | 4.8 | 0.00 | 0.00 | 0.00 | 81 | 1012.7 |
| 20260508083520 | 6 | 177 | 1.6 | 3.2 | 0.00 | 0.00 | 0.00 | 83 | 1012.7 |
| 20260508082520 | 6 | 203 | 0.0 | 1.6 | 0.00 | 0.00 | 0.00 | 84 | 1012.8 |
| 20260508081537 | 6 | 187 | 0.0 | 3.2 | 0.00 | 0.00 | 0.00 | 84 | 1012.8 |
| 20260508080517 | 6 | 155 | 0.0 | 3.2 | 0.00 | 0.00 | 0.00 | 83 | 1012.7 |
| 20260508075517 | 6 | 201 | 0.0 | 3.2 | 0.00 | 0.00 | 0.00 | 82 | 1012.9 |
| 20260508074521 | 7 | 208 | 0.0 | 1.6 | 0.00 | 0.00 | 0.00 | 81 | 1012.9 |
| 20260508073520 | 7 | 166 | 1.6 | 6.4 | 0.00 | 0.00 | 0.00 | 79 | 1013.0 |
| 20260508072518 | 8 | 174 | 1.6 | 4.8 | 0.00 | 0.00 | 0.00 | 77 | 1013.0 |
| 20260508071520 | 8 | 169 | 0.0 | 3.2 | 0.00 | 0.00 | 0.00 | 74 | 1013.1 |
| 20260508070518 | 9 | 307 | 0.0 | 1.6 | 0.00 | 0.00 | 0.00 | 73 | 1013.3 |
| 20260508065559 | 9 | 172 | 1.6 | 1.6 | 0.00 | 0.00 | 0.00 | 70 | 1013.3 |
| 20260508064519 | 10 | 177 | 1.6 | 3.2 | 0.00 | 0.00 | 0.00 | 69 | 1013.2 |
| 20260508063600 | 10 | 359 | 0.0 | 3.2 | 0.00 | 0.00 | 0.00 | 68 | 1013.3 |
| 20260508062519 | 10 | 40 | 0.0 | 3.2 | 0.00 | 0.00 | 0.00 | 65 | 1013.3 |
| 20260508061519 | 10 | 31 | 0.0 | 4.8 | 0.00 | 0.00 | 0.00 | 66 | 1013.4 |
| 20260508060518 | 10 | 60 | 0.0 | 1.6 | 0.00 | 0.00 | 0.00 | 64 | 1013.2 |
| 20260508055519 | 10 | 312 | 0.0 | 1.6 | 0.00 | 0.00 | 0.00 | 62 | 1013.1 |
| 20260508054539 | 10 | 209 | 1.6 | 3.2 | 0.00 | 0.00 | 0.00 | 62 | 1012.9 |
| 20260508053519 | 10 | 206 | 1.6 | 3.2 | 0.00 | 0.00 | 0.00 | 62 | 1012.8 |
| 20260508052519 | 10 | 223 | 1.6 | 4.8 | 0.00 | 0.00 | 0.00 | 62 | 1012.8 |
| 20260508051519 | 10 | 220 | 1.6 | 4.8 | 0.00 | 0.00 | 0.00 | 61 | 1012.9 |
| 20260508050517 | 10 | 214 | 1.6 | 6.4 | 0.00 | 0.00 | 0.00 | 62 | 1012.9 |
| 20260508045519 | 10 | 199 | 1.6 | 4.8 | 0.00 | 0.00 | 0.00 | 62 | 1013.0 |
| 20260508044520 | 10 | 163 | 1.6 | 3.2 | 0.00 | 0.00 | 0.00 | 64 | 1013.0 |
| 20260508043520 | 9 | 211 | 1.6 | 3.2 | 0.00 | 0.00 | 0.00 | 66 | 1013.0 |
| 20260508042517 | 9 | 215 | 1.6 | 3.2 | 0.00 | 0.00 | 0.00 | 66 | 1013.1 |
| 20260508041517 | 8 | 176 | 1.6 | 3.2 | 0.00 | 0.00 | 0.00 | 69 | 1013.0 |
| 20260508040517 | 8 | 208 | 1.6 | 3.2 | 0.00 | 0.00 | 0.00 | 76 | 1013.1 |
| 20260508035537 | 8 | 221 | 0.0 | 1.6 | 0.00 | 0.00 | 0.00 | 77 | 1013.1 |
| 20260508034520 | 8 | 172 | 1.6 | 3.2 | 0.00 | 0.00 | 0.00 | 76 | 1013.1 |
| 20260508033520 | 8 | 169 | 1.6 | 3.2 | 0.00 | 0.00 | 0.00 | 77 | 1013.2 |
| 20260508032517 | 8 | 185 | 1.6 | 1.6 | 0.00 | 0.00 | 0.00 | 75 | 1013.1 |
| 20260508031518 | 7 | 269 | 0.0 | 1.6 | 0.00 | 0.00 | 0.00 | 77 | 1013.0 |
| 20260508030517 | 7 | 199 | 1.6 | 3.2 | 0.00 | 0.00 | 0.00 | 75 | 1013.0 |
| 20260508025518 | 7 | 220 | 0.0 | 6.4 | 0.00 | 0.00 | 0.00 | 77 | 1013.3 |
| 20260508024518 | 7 | 182 | 0.0 | 1.6 | 0.00 | 0.00 | 0.00 | 74 | 1013.3 |
| 20260508023518 | 7 | 138 | 1.6 | 3.2 | 0.00 | 0.00 | 0.00 | 73 | 1013.2 |
| 20260508022518 | 8 | 250 | 0.0 | 4.8 | 0.00 | 0.00 | 0.00 | 73 | 1013.3 |
| 20260508021519 | 8 | 216 | 0.0 | 3.2 | 0.00 | 0.00 | 0.00 | 70 | 1013.2 |
| 20260508020518 | 8 | 285 | 0.0 | 3.2 | 0.00 | 0.00 | 0.00 | 71 | 1013.1 |
| 20260508015519 | 8 | 191 | 1.6 | 3.2 | 0.00 | 0.00 | 0.00 | 69 | 1013.2 |
| 20260508014518 | 8 | 199 | 1.6 | 3.2 | 0.00 | 0.00 | 0.00 | 67 | 1013.3 |
| 20260508013559 | 9 | 192 | 0.0 | 1.6 | 0.00 | 0.00 | 0.00 | 65 | 1013.3 |
| 20260508012519 | 10 | 226 | 1.6 | 3.2 | 0.00 | 0.00 | 0.00 | 63 | 1013.2 |
| 20260508011538 | 10 | 216 | 1.6 | 3.2 | 0.00 | 0.00 | 0.00 | 62 | 1013.1 |
| 20260508010519 | 11 | 221 | 1.6 | 1.6 | 0.00 | 0.00 | 0.00 | 58 | 1013.0 |
| 20260508005520 | 11 | 227 | 0.0 | 1.6 | 0.00 | 0.00 | 0.00 | 55 | 1013.0 |
| 20260508004539 | 11 | 242 | 0.0 | 1.6 | 0.00 | 0.00 | 0.00 | 52 | 1012.9 |
| 20260508003519 | 12 | 222 | 0.0 | 3.2 | 0.00 | 0.00 | 0.00 | 51 | 1012.9 |
| 20260508002519 | 12 | 213 | 1.6 | 1.6 | 0.00 | 0.00 | 0.00 | 51 | 1012.9 |
| 20260508001520 | 12 | 239 | 1.6 | 4.8 | 0.00 | 0.00 | 0.00 | 50 | 1012.7 |
| 20260508000517 | 12 | 224 | 1.6 | 4.8 | 0.00 | 0.00 | 0.00 | 49 | 1012.6 |
| 20260507235520 | 12 | 234 | 1.6 | 4.8 | 0.00 | 0.00 | 0.00 | 48 | 1012.5 |
| 20260507234519 | 13 | 254 | 1.6 | 4.8 | 0.00 | 0.00 | 0.00 | 48 | 1012.5 |
| 20260507233520 | 13 | 257 | 1.6 | 6.4 | 0.00 | 0.00 | 0.00 | 48 | 1012.5 |
| 20260507232517 | 13 | 213 | 0.0 | 3.2 | 0.00 | 0.00 | 0.00 | 48 | 1012.5 |
| 20260507231517 | 13 | 225 | 1.6 | 4.8 | 0.00 | 0.00 | 0.00 | 47 | 1012.4 |
| 20260507230517 | 13 | 325 | 1.6 | 3.2 | 0.00 | 0.00 | 0.00 | 49 | 1012.4 |
| 20260507225517 | 13 | 110 | 0.0 | 1.6 | 0.00 | 0.00 | 0.00 | 50 | 1012.6 |
| 20260507224521 | 13 | 15 | 1.6 | 3.2 | 0.00 | 0.00 | 0.00 | 49 | 1012.8 |
| 20260507223601 | 13 | 360 | 1.6 | 6.4 | 0.00 | 0.00 | 0.00 | 47 | 1012.8 |
| 20260507222518 | 13 | 359 | 1.6 | 4.8 | 0.00 | 0.00 | 0.00 | 46 | 1012.8 |
| 20260507221518 | 14 | 345 | 1.6 | 4.8 | 0.00 | 0.00 | 0.00 | 47 | 1012.8 |
| 20260507220518 | 14 | 342 | 1.6 | 8.0 | 0.00 | 0.00 | 0.00 | 46 | 1012.9 |
| 20260507215518 | 15 | 4 | 1.6 | 9.7 | 0.00 | 0.00 | 0.00 | 46 | 1012.7 |
| 20260507214518 | 15 | 37 | 3.2 | 16.1 | 0.00 | 0.00 | 0.00 | 44 | 1012.4 |
| 20260507213519 | 15 | 319 | 1.6 | 6.4 | 0.00 | 0.00 | 0.00 | 45 | 1012.3 |
| 20260507212539 | 15 | 14 | 3.2 | 11.3 | 0.00 | 0.00 | 0.00 | 45 | 1012.1 |
| 20260507211518 | 15 | 61 | 1.6 | 4.8 | 0.00 | 0.00 | 0.00 | 47 | 1012.4 |
| 20260507210518 | 15 | 16 | 3.2 | 8.0 | 0.00 | 0.00 | 0.00 | 46 | 1012.2 |
| 20260507205519 | 15 | 358 | 3.2 | 11.3 | 0.00 | 0.00 | 0.00 | 45 | 1012.0 |
| 20260507204519 | 15 | 5 | 3.2 | 9.7 | 0.00 | 0.00 | 0.00 | 47 | 1012.3 |
| 20260507203518 | 15 | 341 | 1.6 | 6.4 | 0.00 | 0.00 | 0.00 | 47 | 1011.9 |
| 20260507202519 | 14 | 110 | 1.6 | 9.7 | 0.00 | 0.00 | 0.00 | 46 | 1011.8 |
| 20260507201519 | 14 | 333 | 1.6 | 4.8 | 0.00 | 0.00 | 0.00 | 48 | 1012.3 |
| 20260507200519 | 14 | 348 | 1.6 | 6.4 | 0.00 | 0.00 | 0.00 | 50 | 1012.8 |
| 20260507195516 | 15 | 358 | 1.6 | 4.8 | 0.00 | 0.00 | 0.00 | 48 | 1012.5 |
| 20260507194519 | 16 | 319 | 1.6 | 4.8 | 0.00 | 0.00 | 0.00 | 47 | 1012.3 |
| 20260507193520 | 15 | 298 | 1.6 | 6.4 | 0.00 | 0.00 | 0.00 | 48 | 1012.3 |
| 20260507192517 | 15 | 318 | 3.2 | 9.7 | 0.00 | 0.00 | 0.00 | 46 | 1012.4 |
| 20260507191517 | 15 | 313 | 3.2 | 8.0 | 0.00 | 0.00 | 0.00 | 47 | 1012.4 |
| 20260507190517 | 15 | 149 | 3.2 | 11.3 | 0.00 | 0.00 | 0.00 | 47 | 1012.5 |
| 20260507185540 | 15 | 342 | 3.2 | 11.3 | 0.00 | 0.00 | 0.00 | 48 | 1012.6 |
| 20260507184520 | 15 | 342 | 3.2 | 11.3 | 0.00 | 0.00 | 0.00 | 49 | 1012.5 |
| 20260507183517 | 15 | 349 | 1.6 | 4.8 | 0.00 | 0.00 | 0.00 | 49 | 1012.5 |
| 20260507182517 | 15 | 27 | 3.2 | 8.0 | 0.00 | 0.00 | 0.00 | 49 | 1012.6 |
| 20260507181538 | 15 | 67 | 3.2 | 8.0 | 0.00 | 0.00 | 0.00 | 52 | 1012.5 |
| 20260507180521 | 15 | 319 | 3.2 | 9.7 | 0.00 | 0.00 | 0.00 | 52 | 1012.5 |
| 20260507175519 | 15 | 16 | 3.2 | 6.4 | 0.00 | 0.00 | 0.00 | 52 | 1012.6 |
| 20260507174519 | 15 | 13 | 1.6 | 8.0 | 0.00 | 0.00 | 0.00 | 52 | 1012.7 |
| 20260507173518 | 15 | 293 | 3.2 | 9.7 | 0.00 | 0.00 | 0.00 | 51 | 1012.9 |
| 20260507172538 | 15 | 230 | 1.6 | 9.7 | 0.00 | 0.00 | 0.00 | 52 | 1012.9 |
| 20260507171519 | 14 | 5 | 3.2 | 6.4 | 0.00 | 0.00 | 0.00 | 51 | 1013.0 |
| 20260507170538 | 15 | 259 | 3.2 | 9.7 | 0.00 | 0.00 | 0.00 | 51 | 1013.2 |
| 20260507165519 | 14 | 57 | 3.2 | 6.4 | 0.00 | 0.00 | 0.00 | 50 | 1013.2 |
| 20260507164519 | 13 | 333 | 1.6 | 4.8 | 0.00 | 0.00 | 0.00 | 52 | 1013.3 |
| 20260507163518 | 14 | 320 | 3.2 | 9.7 | 0.00 | 0.00 | 0.00 | 50 | 1013.4 |
| 20260507162519 | 14 | 247 | 3.2 | 8.0 | 0.00 | 0.00 | 0.00 | 50 | 1013.3 |
| 20260507161536 | 13 | 31 | 3.2 | 9.7 | 0.00 | 0.00 | 0.00 | 53 | 1013.3 |
| 20260507160614 | 13 | 200 | 3.2 | 9.7 | 0.00 | 0.00 | 0.00 | 49 | 1013.3 |
| 20260507155519 | 13 | 189 | 3.2 | 8.0 | 0.00 | 0.00 | 0.00 | 52 | 1013.2 |